Tracking 25963 objects as of 12-Aug-2022
HD Live streaming from Space Station
objects crossing your sky now

RESURS O1 DEB

Track RESURS O1 DEB now!
10-day predictions


NORAD ID: 46892
Int'l Code: 1994-074BY
Perigee: 590.6 km
Apogee: 593.7 km
Inclination: 97.9 °
Period: 96.4 minutes
Semi major axis: 6963 km
RCS: Unknown
Launch date: November 4, 1994
Source: Commonwealth of Independent States (former USSR) (CIS)
Launch site: TYURATAM MISSILE AND SPACE COMPLEX (TTMTR)

Note: This is SATELLITE DEBRIS
aabbcc
Your satellite tracking list
Your tracking list is empty




NASA's NSSDC Master Catalog

Two Line Element Set (TLE):
1 46892U 94074BY  22223.86771731  .00026199  00000-0  24462-2 0  9991
2 46892  97.9076 276.3224 0002197 163.4236 196.7055 14.94143622 95664
Source of the keplerian elements: AFSPC